TimeCST,TemperatureF,Dew PointF,Humidity,Sea Level PressureIn,VisibilityMPH,Wind Direction,Wind SpeedMPH,Gust SpeedMPH,PrecipitationIn,Events,Conditions,WindDirDegrees,DateUTC
12:54 AM,39.0,35.1,86,30.10,8.0,East,6.9,-,N/A,,Clear,100,2012-12-01 06:54:00
2:54 AM,39.0,36.0,89,30.11,7.0,ESE,5.8,-,N/A,,Clear,110,2012-12-01 08:54:00
3:54 AM,37.9,36.0,93,30.10,7.0,ENE,3.5,-,N/A,,Clear,60,2012-12-01 09:54:00
4:25 AM,39.2,37.4,93,30.10,6.0,East,4.6,-,N/A,,Mostly Cloudy,80,2012-12-01 10:25:00
4:54 AM,43.0,39.9,89,30.10,7.0,ENE,4.6,-,N/A,,Overcast,60,2012-12-01 10:54:00
5:21 AM,42.8,39.2,87,30.09,8.0,East,6.9,-,N/A,,Scattered Clouds,90,2012-12-01 11:21:00
5:54 AM,39.9,37.0,89,30.10,7.0,East,6.9,-,N/A,,Clear,100,2012-12-01 11:54:00
6:54 AM,41.0,39.0,93,30.09,4.0,East,9.2,-,N/A,,Clear,100,2012-12-01 12:54:00
7:11 AM,41.0,39.2,93,30.08,2.5,East,8.1,-,N/A,,Clear,100,2012-12-01 13:11:00
7:54 AM,45.0,43.0,93,30.08,3.0,ENE,4.6,-,N/A,,Clear,70,2012-12-01 13:54:00
8:54 AM,53.1,48.0,83,30.07,6.0,East,4.6,-,N/A,,Haze,80,2012-12-01 14:54:00
11:54 AM,64.9,52.0,63,30.00,10.0,South,13.8,-,N/A,,Scattered Clouds,170,2012-12-01 17:54:00
12:54 PM,68.0,54.0,61,29.97,10.0,South,15.0,-,N/A,,Clear,170,2012-12-01 18:54:00
2:54 PM,68.0,54.0,61,29.93,10.0,SSE,13.8,-,N/A,,Scattered Clouds,160,2012-12-01 20:54:00
3:54 PM,66.9,53.1,61,29.93,10.0,SSE,15.0,-,N/A,,Mostly Cloudy,160,2012-12-01 21:54:00
4:54 PM,66.0,53.1,63,29.93,10.0,SSE,16.1,-,N/A,,Mostly Cloudy,160,2012-12-01 22:54:00
5:54 PM,64.9,53.1,65,29.94,10.0,SSE,16.1,-,N/A,,Overcast,160,2012-12-01 23:54:00
6:54 PM,62.1,52.0,70,29.95,10.0,SSE,10.4,-,N/A,,Mostly Cloudy,150,2012-12-02 00:54:00
7:54 PM,62.1,52.0,70,29.96,10.0,South,15.0,-,N/A,,Overcast,170,2012-12-02 01:54:00
8:54 PM,62.1,51.1,67,29.94,10.0,South,11.5,-,N/A,,Mostly Cloudy,170,2012-12-02 02:54:00
9:54 PM,62.1,52.0,70,29.94,10.0,South,10.4,-,N/A,,Overcast,170,2012-12-02 03:54:00
10:54 PM,63.0,52.0,67,29.94,10.0,South,9.2,-,N/A,,Overcast,170,2012-12-02 04:54:00
11:54 PM,63.0,53.1,70,29.93,10.0,South,8.1,-,N/A,,Overcast,190,2012-12-02 05:54:00